SCP
0 0 0 0 0 0 0 0 0 0 0 0 0 0 0 0 0 0 0 0 0 0 0 0 0 0 0 0 0 0 0 0 0 0 0 0 0 0 0 0 0 0 0
0 0 0 0 0 0 0 0 0 0 0 0 0 0 0 0 0 0 0 0 0 0 0 0 0 0 0 0 0 0 0 0 0 0 0 0 0 0 0 0 0 0 0
0 0 0 0 0 0 0 0 0 0 0 0 0 0 0 0 0 0 0 0 0 0 0 0 0 0 0 0 0 0 0 0 0 0 0 0 0 0 0 0 0 0 0
0 0 0 0 0 0 0 0 0 0 0 0 0 0 0 0 0 0 0 0 0 0 0 0 0 0 0 0 0 0 0 0 0 0 0 0 0 0 0 0 0 0 0
0 0 0 0 0 0 0 0 0 0 0 0 0 0 0 0 0 0 0 0 0 0 0 0 0 0 0 0 0 0 0 0 0 0 0 0 0 0 0 0 0 0 0
0 0 0 0 0 0 0 0 0 0 0 0 0 0 0 0 0 0 0 0 0 0 0 0 0 0 0 0 0 0 0 0 0 0 0 0 0 0 0 0 0 0 0
0 0 0 0 0 0 0 0 0 0 0 0 0 0 0 0 0 0 0 0 0 0 0 0 0 0 0 0 0 0 0 0 0 0 0 0 0 0 0 0 0 0 0
0 0 0 0 0 0 0 0 0 0 0 0 0 0 0 0 0 0 0 0 0 0 0 0 0 0 0 0 0 0 0 0 0 0 0 0 0 0 0 0 0 0 0
0 0 0 0 0 0 0 0 0 0 0 0 0 0 0 0 0 0 0 0 0 0 0 0 0 0 0 0 0 0 0 0 0 0 0 0 0 0 0 0 0 0 0
0 0 0 0 0 0 0 0 0 0 0 0 0 0 0 0 0 0 0 0 0 0 0 0 0 0 0 1 1 1 1 1 0 0 0 0 0 0 0 0 0 0 0
0 0 0 0 0 0 0 0 0 0 0 0 0 0 0 0 0 0 0 0 0 0 0 0 1 1 1 1 1 1 1 1 0 0 0 0 0 1 1 1 0 0 0
0 0 0 0 0 0 0 0 0 0 0 0 0 0 0 0 0 0 0 0 0 0 0 1 1 1 1 1 1 0 0 0 0 0 0 0 0 1 1 1 0 0 1
0 0 0 0 0 0 0 0 0 0 0 0 0 0 0 0 0 0 0 0 0 0 0 1 1 1 1 1 1 0 0 0 0 0 0 0 1 1 1 1 1 1 1
0 0 0 0 0 0 0 0 0 0 0 0 0 0 0 0 0 0 0 0 0 0 0 0 1 1 1 1 1 1 1 1 1 1 0 0 0 1 1 1 1 1 1
0 0 0 0 0 0 0 0 0 0 0 0 0 0 0 0 0 0 0 0 0 0 0 0 1 1 1 1 1 1 1 1 1 1 1 0 0 0 0 0 0 0 1
0 0 0 0 0 0 0 0 0 0 0 0 0 0 0 0 0 0 0 0 0 0 1 1 1 1 1 0 0 0 0 1 1 1 1 1 0 0 0 0 0 0 0
0 0 0 0 0 0 0 0 0 0 0 0 0 0 0 0 0 0 0 0 0 1 1 1 1 1 1 0 0 0 0 0 0 1 1 1 1 0 0 0 0 0 0
0 0 0 0 0 0 0 0 0 0 0 0 0 0 0 1 1 0 0 0 0 1 1 1 1 1 1 0 0 0 0 0 0 0 1 1 1 1 1 0 0 0 0
0 0 0 0 0 1 1 1 1 1 0 0 0 0 0 0 1 0 0 0 0 1 1 1 1 1 1 0 0 0 0 0 0 0 0 0 0 0 0 0 1 1 0
1 0 0 0 0 1 1 1 1 1 1 0 0 0 0 0 0 0 0 0 0 0 0 1 1 1 1 0 0 0 0 0 0 0 0 0 0 0 0 0 0 1 0
1 1 0 0 0 0 1 1 1 1 0 0 0 0 0 0 0 0 1 1 1 0 0 1 1 1 1 0 0 0 0 0 0 0 0 0 0 0 0 0 0 0 0
0 0 0 0 0 0 0 0 0 0 0 0 0 0 0 0 0 1 1 1 1 1 1 1 1 1 1 0 0 0 0 0 0 0 0 0 0 0 0 0 0 0 0
0 0 0 0 0 0 0 0 0 0 0 0 0 1 1 1 1 1 1 1 1 1 1 1 1 1 1 0 0 0 0 0 0 0 0 0 0 0 0 0 0 0 0
0 0 0 0 0 0 0 0 0 0 0 1 1 1 1 1 1 1 1 1 1 1 1 1 1 1 1 0 0 0 0 0 0 0 0 0 0 0 0 0 0 0 0
0 0 0 0 0 0 0 0 0 1 1 1 1 1 1 1 1 1 1 1 0 0 0 0 0 1 0 0 0 0 0 0 0 0 0 0 0 0 0 0 0 0 0
0 0 0 0 0 0 0 0 0 0 1 1 1 0 0 1 1 1 1 0 0 0 0 0 0 0 0 0 0 0 0 0 0 0 0 0 0 0 1 1 1 1 1
Wind_Speed
4 4 3 3 3 2 2 2 1 1 1 0 1 0 0 0 0 1 1 1 1 1 1 1 1 2 0 1 1 1 1 1 1 1 2 2 2 1 1 1 1 2 2
5 4 4 3 3 3 3 2 2 2 2 1 1 1 1 1 1 1 1 1 1 2 1 1 1 1 1 1 1 1 1 0 0 1 1 2 3 3 2 2 2 1 2
5 5 5 4 4 3 3 1 1 1 2 1 1 1 1 1 0 1 0 1 1 1 2 1 2 2 2 1 2 2 2 1 1 0 1 1 1 2 3 3 2 2 1
5 5 5 4 3 3 3 3 2 1 1 2 1 1 1 1 2 2 1 1 1 2 2 2 2 2 2 1 2 2 2 2 2 1 1 2 2 2 2 3 3 3 2
4 4 4 4 3 3 3 3 2 2 1 2 2 2 2 1 1 2 2 2 1 1 2 2 2 2 2 1 2 1 2 2 2 1 1 1 1 2 2 1 2 2 2
4 4 4 3 2 3 3 3 3 2 1 2 1 2 2 2 3 2 2 2 1 1 1 2 2 2 2 2 2 2 3 2 2 1 1 2 1 1 1 1 2 1 1
5 5 4 4 3 3 3 3 3 2 1 1 1 2 2 3 3 3 2 2 2 1 1 2 2 2 2 2 3 3 3 3 3 3 2 2 2 2 2 2 1 1 2
5 5 5 4 4 3 3 3 3 2 1 1 1 1 2 3 2 2 3 2 2 2 2 2 2 2 3 3 3 3 3 3 3 3 3 3 3 2 2 2 2 2 3
5 5 5 5 4 4 4 3 3 2 1 1 1 0 1 3 3 3 3 2 2 2 2 2 2 2 2 2 3 2 2 2 3 3 4 4 3 3 3 3 3 3 3
5 5 5 5 4 4 4 3 3 2 1 1 1 1 1 1 2 3 3 3 3 3 2 2 2 2 2 3 3 3 3 3 3 3 3 4 3 2 3 3 3 3 4
5 5 5 4 4 4 4 3 2 2 1 0 0 1 1 1 2 2 2 2 2 2 2 2 3 3 3 2 3 3 3 4 4 4 4 4 4 3 3 3 3 3 3
4 5 5 4 4 3 3 3 2 2 1 0 0 1 1 2 2 2 2 2 2 3 2 3 3 3 3 3 3 4 3 4 4 4 4 4 3 4 3 3 3 3 3
4 4 4 3 3 2 2 2 2 1 0 0 1 1 2 2 3 3 3 3 3 3 3 3 3 3 3 3 3 4 4 4 4 4 4 4 4 4 3 4 3 3 4
4 3 3 3 2 2 1 1 1 1 1 1 2 2 2 3 3 3 3 3 3 4 3 3 3 3 3 3 3 3 4 4 4 4 4 4 4 4 4 4 4 4 4
3 3 2 2 2 1 1 1 1 0 1 2 2 2 3 3 3 3 3 3 4 4 4 4 4 4 4 3 3 4 4 4 5 5 4 4 4 4 4 4 4 4 4
3 3 3 2 2 2 1 1 1 0 1 2 3 2 3 3 3 4 4 4 4 4 4 4 5 5 3 1 2 5 5 5 5 5 5 5 6 5 6 6 5 5 6
2 2 2 2 1 1 1 1 1 1 1 2 3 3 3 3 3 4 4 4 4 5 5 5 5 5 3 2 4 6 7 6 5 5 5 5 3 5 5 6 8 8 8
1 1 1 1 1 1 1 1 1 1 2 2 2 3 4 4 4 4 4 4 4 5 5 5 5 6 4 4 5 6 8 6 6 6 6 6 5 4 5 6 6 7 7
1 1 1 1 1 1 1 0 1 1 2 2 3 3 4 4 4 5 5 5 5 5 5 5 5 6 4 4 5 5 6 5 6 6 6 7 7 3 4 7 7 7 7
2 2 2 2 2 2 1 0 1 1 2 3 3 3 4 4 5 5 5 5 5 6 6 5 5 6 5 4 5 6 6 5 6 6 6 6 7 4 5 7 7 7 7
2 2 3 2 2 2 2 1 2 2 3 3 3 3 3 4 4 4 4 5 5 5 5 5 5 5 5 5 5 6 6 6 6 6 5 4 7 7 7 8 8 7 7
2 3 3 2 2 2 2 2 2 3 3 3 3 3 4 4 3 4 4 4 5 5 5 5 5 4 4 4 5 7 8 8 7 6 5 3 4 7 8 8 7 8 8
2 3 3 2 2 2 2 3 3 3 3 4 4 4 4 4 4 4 4 4 3 4 4 4 4 4 3 2 4 6 7 8 7 6 5 5 5 7 8 10 9 8 7
2 2 2 2 2 3 3 3 3 3 3 4 4 4 4 4 3 4 4 4 4 4 4 4 4 4 3 3 3 3 4 5 6 5 4 6 7 7 7 5 7 7 6
1 1 1 2 2 3 3 3 3 3 4 4 4 4 4 3 3 3 3 4 3 4 5 5 5 5 4 4 5 5 4 4 3 4 4 4 4 4 4 5 4 5 5
1 1 1 2 3 3 3 4 4 4 4 4 4 4 3 3 3 3 3 1 3 2 3 5 6 4 5 5 5 5 6 5 4 4 4 4 4 5 5 4 4 4 5
Wind_Direction
154 155 162 161 156 151 159 161 179 151 206 223 277 261 24 300 277 273 336 298 303 297 272 295 253 272 260 304 270 241 191 186 208 201 165 156 157 161 164 181 166 159 158
166 164 172 175 173 167 178 183 184 187 215 177 252 295 317 307 323 331 5 310 298 281 231 240 264 279 243 222 237 219 246 266 218 266 218 185 171 177 160 168 175 170 158
176 171 173 181 184 181 186 182 184 194 224 235 224 224 225 255 278 286 268 306 307 288 289 259 267 267 259 212 232 218 224 240 206 285 290 262 209 165 155 167 165 162 158
174 173 171 176 186 184 175 173 174 191 214 225 243 266 298 320 328 309 340 331 323 309 288 266 259 262 270 242 239 196 234 231 220 185 275 327 341 268 178 168 162 162 172
169 172 171 167 178 179 177 169 163 187 211 231 212 244 266 291 307 311 329 309 307 298 289 270 264 263 261 250 258 238 246 235 235 232 211 202 213 269 274 180 162 164 180
157 159 154 151 163 168 174 162 151 168 205 229 237 249 280 300 312 307 312 301 308 297 299 258 250 253 263 242 225 226 214 240 247 258 247 237 250 245 255 234 190 186 192
159 157 157 157 157 159 154 143 140 153 182 217 257 274 283 278 282 291 296 307 320 320 312 280 252 260 256 251 231 215 228 221 218 230 244 251 269 280 273 258 229 219 207
156 159 160 158 156 151 147 143 136 138 145 172 253 288 291 283 292 300 307 312 310 318 315 281 262 262 259 252 231 223 215 211 218 224 240 248 243 250 250 257 257 241 226
158 157 155 154 153 152 150 151 143 141 133 124 175 254 309 317 323 311 290 298 304 299 300 281 268 258 258 258 246 234 230 219 223 224 217 236 233 240 251 248 252 262 256
153 151 149 151 150 150 144 144 139 139 140 130 295 101 351 328 319 308 328 323 316 316 302 297 288 274 254 232 238 233 227 226 227 239 243 244 242 230 243 246 249 262 269
151 149 150 152 150 149 143 146 154 169 164 134 350 342 324 322 305 301 308 306 307 310 302 295 286 277 262 246 239 249 233 231 231 235 230 234 254 245 239 241 240 245 256
145 147 148 151 155 154 153 161 181 190 181 143 269 297 303 304 297 302 302 298 296 292 292 286 273 263 259 251 246 251 247 240 238 237 239 241 233 233 243 244 241 243 247
151 149 150 155 161 167 171 182 204 214 267 283 278 298 296 299 302 306 300 295 288 291 291 282 276 272 267 257 255 256 255 250 247 245 240 242 238 235 237 240 242 244 242
157 161 162 164 167 176 176 208 245 267 300 307 290 288 291 295 298 297 290 287 282 280 283 279 276 271 264 257 258 258 259 256 256 253 245 242 237 235 239 232 234 244 249
162 169 179 164 170 164 175 203 247 304 320 291 290 297 292 290 290 289 282 279 277 276 276 273 270 268 257 254 268 260 250 252 252 248 244 241 239 247 247 254 236 236 243
173 181 186 182 185 179 178 198 234 288 284 287 298 304 294 293 296 291 286 279 276 278 273 267 266 264 269 357 298 281 265 253 249 249 248 238 225 225 223 243 251 250 245
176 183 196 190 190 193 198 207 232 263 283 298 301 294 291 294 293 292 290 282 276 273 271 270 266 263 257 223 246 263 267 255 250 250 253 255 241 232 239 230 229 236 241
149 147 177 183 183 201 193 228 267 287 293 298 303 303 297 290 287 287 288 283 280 277 273 271 269 267 252 212 227 251 253 255 251 248 249 255 256 249 254 253 243 243 238
82 76 92 75 48 42 51 139 274 294 301 312 308 308 300 294 289 287 289 287 281 278 275 273 272 270 260 219 222 243 252 247 248 249 249 253 253 238 245 252 251 252 251
63 48 63 74 58 23 20 325 286 303 312 315 307 300 293 292 290 289 287 284 277 272 273 273 271 269 268 230 220 235 255 252 250 242 238 231 247 240 220 243 251 254 259
65 54 54 58 43 14 356 327 326 328 325 319 310 301 295 285 284 289 289 287 282 281 279 279 272 265 265 240 219 228 259 264 259 257 250 232 199 222 225 241 252 256 267
62 51 47 47 37 15 345 333 336 336 329 315 306 301 298 293 298 296 294 291 289 281 278 275 274 268 256 248 225 222 243 268 267 268 269 261 199 218 227 236 250 256 256
65 52 43 47 38 20 356 340 342 335 323 310 302 296 294 293 294 288 288 284 280 285 291 289 286 289 292 259 216 222 242 251 257 270 291 291 248 238 233 229 237 241 243
77 57 40 27 16 10 2 345 333 322 311 307 305 297 290 288 288 287 287 291 299 298 298 298 299 297 295 302 299 270 250 238 245 264 264 243 239 243 261 252 227 234 245
57 30 16 8 360 355 349 344 338 325 313 309 303 295 294 300 295 287 294 293 303 312 300 304 303 302 303 335 339 310 300 302 313 300 276 271 263 252 247 249 251 248 242
12 346 347 345 343 342 344 344 334 321 311 303 301 298 295 300 293 296 295 313 289 295 274 284 292 304 320 326 317 308 306 307 302 281 271 274 275 274 276 275 266 252 250